Capitol Logistics 332


KAUS
Austin-Bergstrom International Airport
Austin, Texas, US
KHRL
Valley International Airport
Harlingen, Texas, US

Activity Log

Date Flight Route Aircraft Duration
11/30/2018 CPX362 BNDIA2 BNDIA ICEMN J25 CRP V407 HRL B752 1h 01m
11/27/2018 CPX362 BNDIA2 BNDIA ICEMN J25 CRP V407 HRL B752 0h 55m

Route Details

Aircraft Information
Primary: Boeing 767-300BDSF
Backup: Not Available
Route Data
Distance: 273nm
Sched. Duration: 1h 00m
Avg. Duration: 0h 78m (-22m)
Times Flown: 2
Recm'd Route: PCKIT CRP
Planned Altitude: 29,000ft
Origin Wx: KAUS 262053Z 04007KT 10SM FEW065 FEW300 23/02 A2982 RMK AO2 SLP095 T02280022 56033
Dest. Wx: KHRL 262052Z 05005KT 9SM BKN039 29/19 A2973 RMK AO2 SLP067 T02940194 56029
Notes:

Financial History
Total Freight: 120,422lbs
Average Load: 60,211lbs/flt
Fuel Used: 15,554lbs
Avg. Fuel Used: 7,777lbs/flt
Fuel Expense: $16,798
Avg. Fuel Expense: $8,399
Avg. Fuel Cost: $1.08/lbs
Total Gross Income: $150,528
Pilot Pay: $298
Total Expenses: $16,361
Total Revenue: $116,906
Average Revenue: $75,263.80